TimeCST,TemperatureF,Dew PointF,Humidity,Sea Level PressureIn,VisibilityMPH,Wind Direction,Wind SpeedMPH,Gust SpeedMPH,PrecipitationIn,Events,Conditions,WindDirDegrees,DateUTC
12:53 AM,51.1,27.0,39,30.09,10.0,NNE,6.9,-,N/A,,Clear,20,2012-12-11 06:53:00
1:53 AM,50.0,28.0,43,30.09,10.0,NNE,6.9,-,N/A,,Partly Cloudy,30,2012-12-11 07:53:00
2:53 AM,50.0,30.0,46,30.04,10.0,NNE,8.1,-,N/A,,Clear,20,2012-12-11 08:53:00
3:53 AM,50.0,28.9,44,30.07,10.0,NNE,6.9,-,N/A,,Partly Cloudy,20,2012-12-11 09:53:00
4:53 AM,48.9,30.0,48,30.08,10.0,NNE,8.1,-,N/A,,Mostly Cloudy,20,2012-12-11 10:53:00
5:53 AM,48.9,30.0,48,30.09,10.0,North,10.4,-,N/A,,Overcast,10,2012-12-11 11:53:00
6:53 AM,48.9,30.0,48,30.12,10.0,North,9.2,-,N/A,,Overcast,10,2012-12-11 12:53:00
7:53 AM,48.9,28.9,46,30.14,10.0,North,9.2,-,N/A,,Overcast,360,2012-12-11 13:53:00
8:53 AM,48.9,28.9,46,30.15,10.0,NNE,6.9,-,N/A,,Overcast,20,2012-12-11 14:53:00
9:53 AM,50.0,30.9,48,30.17,10.0,North,9.2,-,N/A,,Overcast,10,2012-12-11 15:53:00
10:53 AM,52.0,30.9,45,30.18,10.0,North,4.6,-,N/A,,Overcast,10,2012-12-11 16:53:00
11:53 AM,54.0,33.1,45,30.16,10.0,North,6.9,-,N/A,,Overcast,360,2012-12-11 17:53:00
12:53 PM,55.4,33.8,44,30.13,10.0,NNE,6.9,-,N/A,,Overcast,20,2012-12-11 18:53:00
2:53 PM,57.0,28.9,34,30.09,10.0,NNE,8.1,-,N/A,,Overcast,20,2012-12-11 20:53:00
3:53 PM,57.0,28.0,33,30.09,10.0,NNE,6.9,-,N/A,,Overcast,20,2012-12-11 21:53:00
4:53 PM,57.0,25.0,29,30.09,10.0,NNE,10.4,-,N/A,,Overcast,30,2012-12-11 22:53:00
5:53 PM,55.9,24.1,29,30.10,10.0,NNE,6.9,-,N/A,,Overcast,30,2012-12-11 23:53:00
6:53 PM,55.0,21.9,28,30.14,10.0,NNE,5.8,-,N/A,,Overcast,30,2012-12-12 00:53:00
7:53 PM,54.0,24.1,31,30.17,10.0,NNE,6.9,-,N/A,,Overcast,20,2012-12-12 01:53:00
8:53 PM,54.0,24.1,31,30.19,10.0,NNE,6.9,-,N/A,,Overcast,30,2012-12-12 02:53:00
9:53 PM,54.0,24.1,31,30.19,10.0,NE,6.9,-,N/A,,Overcast,40,2012-12-12 03:53:00
10:53 PM,53.1,25.0,34,30.22,10.0,NE,6.9,-,N/A,,Overcast,40,2012-12-12 04:53:00
11:53 PM,53.1,26.1,35,30.24,10.0,North,4.6,-,N/A,,Overcast,10,2012-12-12 05:53:00